Time,TemperatureF,DewpointF,PressureIn,WindDirection,WindDirectionDegrees,WindSpeedMPH,WindSpeedGustMPH,Humidity,HourlyPrecipIn,Conditions,Clouds,dailyrainin,SoftwareType,DateUTC
2013-08-03 00:00:00,63.0,57.4,29.79,South,188,3.0,7.4,82,0.00,,,-99.99,FreeWX 2.05,2013-08-02 23:00:00,
2013-08-03 00:10:00,63.0,57.7,29.79,SW,219,2.0,6.7,83,0.00,,,-99.99,FreeWX 2.05,2013-08-02 23:10:00,
2013-08-03 00:20:00,63.0,57.7,29.79,North,-999,0.0,4.5,83,0.00,,,-99.99,FreeWX 2.05,2013-08-02 23:20:00,
2013-08-03 00:25:00,62.6,57.4,29.76,North,-999,0.0,3.1,83,0.00,,,-99.99,FreeWX 2.05,2013-08-02 23:25:00,
2013-08-03 00:30:00,62.4,57.6,29.76,North,-999,0.0,2.7,84,0.00,,,-99.99,FreeWX 2.05,2013-08-02 23:30:00,
2013-08-03 00:40:00,62.2,57.4,29.79,North,-999,0.0,4.9,84,0.00,,,-99.99,FreeWX 2.05,2013-08-02 23:40:00,
2013-08-03 00:50:00,62.1,57.6,29.79,SSE,152,2.0,5.4,85,0.00,,,-99.99,FreeWX 2.05,2013-08-02 23:50:00,
2013-08-03 00:55:00,61.9,57.4,29.79,SE,138,2.0,4.5,85,0.00,,,-99.99,FreeWX 2.05,2013-08-02 23:55:00,
2013-08-03 01:00:00,61.9,57.6,29.79,SE,139,1.0,4.9,86,0.00,,,-99.99,FreeWX 2.05,2013-08-03 00:00:00,
2013-08-03 01:05:00,61.9,57.6,29.79,SE,142,1.0,6.3,86,0.00,,,-99.99,FreeWX 2.05,2013-08-03 00:05:00,
2013-08-03 01:15:00,61.7,57.7,29.79,SSE,167,1.0,4.0,87,0.00,,,-99.99,FreeWX 2.05,2013-08-03 00:15:00,
2013-08-03 01:25:00,61.7,58.1,29.79,SE,135,1.0,4.0,88,0.00,,,-99.99,FreeWX 2.05,2013-08-03 00:25:00,
2013-08-03 01:30:00,61.7,58.1,29.79,SE,138,1.0,4.5,88,0.00,,,-99.99,FreeWX 2.05,2013-08-03 00:30:00,
2013-08-03 01:35:00,61.9,58.6,29.79,South,169,2.0,4.5,89,0.00,,,-99.99,FreeWX 2.05,2013-08-03 00:35:00,
2013-08-03 01:40:00,61.7,58.5,29.79,SSW,194,1.0,5.8,89,0.00,,,-99.99,FreeWX 2.05,2013-08-03 00:40:00,
2013-08-03 01:50:00,61.7,58.5,29.79,South,171,1.0,3.6,89,0.00,,,-99.99,FreeWX 2.05,2013-08-03 00:50:00,
2013-08-03 01:55:00,61.7,58.8,29.79,SSE,162,1.0,5.8,90,0.00,,,-99.99,FreeWX 2.05,2013-08-03 00:55:00,
2013-08-03 02:05:00,61.5,58.6,29.79,SE,144,3.0,5.4,90,0.00,,,-99.99,FreeWX 2.05,2013-08-03 01:05:00,
2013-08-03 02:15:00,61.5,58.8,29.79,South,172,3.0,7.4,91,0.00,,,-99.99,FreeWX 2.05,2013-08-03 01:15:00,
2013-08-03 02:20:00,61.5,58.8,29.79,South,183,3.0,5.4,91,0.00,,,-99.99,FreeWX 2.05,2013-08-03 01:20:00,
2013-08-03 02:25:00,61.3,59.0,29.82,South,177,3.0,6.7,92,0.00,,,-99.99,FreeWX 2.05,2013-08-03 01:25:00,
2013-08-03 02:30:00,61.2,58.8,29.82,South,171,3.0,5.4,92,0.00,,,-99.99,FreeWX 2.05,2013-08-03 01:30:00,
2013-08-03 02:40:00,61.0,58.6,29.82,South,171,2.0,5.4,92,0.00,,,-99.99,FreeWX 2.05,2013-08-03 01:40:00,
2013-08-03 02:45:00,60.8,58.5,29.82,South,187,2.0,5.4,92,0.00,,,-99.99,FreeWX 2.05,2013-08-03 01:45:00,
2013-08-03 02:50:00,60.6,58.3,29.82,South,186,1.0,6.3,92,0.00,,,-99.99,FreeWX 2.05,2013-08-03 01:50:00,
2013-08-03 02:55:00,60.6,58.3,29.82,South,182,2.0,5.8,92,0.00,,,-99.99,FreeWX 2.05,2013-08-03 01:55:00,
2013-08-03 03:05:00,60.4,58.1,29.82,SSW,211,3.0,5.4,92,0.00,,,-99.99,FreeWX 2.05,2013-08-03 02:05:00,
2013-08-03 03:15:00,60.4,58.1,29.82,South,189,3.0,6.7,92,0.00,,,-99.99,FreeWX 2.05,2013-08-03 02:15:00,
2013-08-03 03:20:00,60.3,57.9,29.82,SSE,165,3.0,6.9,92,0.00,,,-99.99,FreeWX 2.05,2013-08-03 02:20:00,
2013-08-03 03:25:00,60.1,57.7,29.82,SSE,162,3.0,5.8,92,0.00,,,-99.99,FreeWX 2.05,2013-08-03 02:25:00,
2013-08-03 03:30:00,60.1,57.7,29.82,SSE,166,3.0,5.8,92,0.00,,,-99.99,FreeWX 2.05,2013-08-03 02:30:00,
2013-08-03 03:35:00,59.9,57.6,29.82,SSE,164,1.0,3.1,92,0.00,,,-99.99,FreeWX 2.05,2013-08-03 02:35:00,
2013-08-03 03:45:00,59.7,57.4,29.82,North,-999,0.0,3.6,92,0.00,,,-99.99,FreeWX 2.05,2013-08-03 02:45:00,
2013-08-03 03:55:00,59.5,57.6,29.82,SSE,165,1.0,4.0,93,0.00,,,-99.99,FreeWX 2.05,2013-08-03 02:55:00,
2013-08-03 04:05:00,59.4,57.4,29.82,SSE,163,2.0,4.9,93,0.00,,,-99.99,FreeWX 2.05,2013-08-03 03:05:00,
2013-08-03 04:15:00,59.2,57.2,29.82,South,177,3.0,7.4,93,0.00,,,-99.99,FreeWX 2.05,2013-08-03 03:15:00,
2013-08-03 04:20:00,59.2,57.2,29.82,South,185,3.0,6.7,93,0.00,,,-99.99,FreeWX 2.05,2013-08-03 03:20:00,
2013-08-03 04:25:00,59.0,57.0,29.82,South,175,3.0,5.4,93,0.00,,,-99.99,FreeWX 2.05,2013-08-03 03:25:00,
2013-08-03 04:35:00,58.8,56.8,29.82,SSE,163,2.0,5.8,93,0.00,,,-99.99,FreeWX 2.05,2013-08-03 03:35:00,
2013-08-03 04:45:00,58.8,56.8,29.82,SSE,167,2.0,6.3,93,0.00,,,-99.99,FreeWX 2.05,2013-08-03 03:45:00,
2013-08-03 04:51:00,58.8,56.8,29.82,SSE,162,2.0,7.4,93,0.00,,,-99.99,FreeWX 2.05,2013-08-03 03:51:00,
2013-08-03 04:56:00,58.8,56.8,29.82,South,180,2.0,6.7,93,0.00,,,-99.99,FreeWX 2.05,2013-08-03 03:56:00,
2013-08-03 05:01:00,58.6,56.7,29.82,SSW,199,3.0,4.9,93,0.00,,,-99.99,FreeWX 2.05,2013-08-03 04:01:00,
2013-08-03 05:06:00,58.6,56.8,29.82,SSW,203,3.0,6.7,94,0.00,,,-99.99,FreeWX 2.05,2013-08-03 04:06:00,
2013-08-03 05:11:00,58.6,56.8,29.85,SSW,210,3.0,5.4,94,0.00,,,-99.99,FreeWX 2.05,2013-08-03 04:11:00,
2013-08-03 05:21:00,58.6,56.8,29.85,SSW,196,2.0,4.9,94,0.00,,,-99.99,FreeWX 2.05,2013-08-03 04:21:00,
2013-08-03 05:26:00,58.6,56.8,29.85,South,190,3.0,6.3,94,0.00,,,-99.99,FreeWX 2.05,2013-08-03 04:26:00,
2013-08-03 05:31:00,58.6,56.8,29.85,SSW,205,2.0,5.4,94,0.00,,,-99.99,FreeWX 2.05,2013-08-03 04:31:00,
2013-08-03 05:36:00,58.5,56.7,29.85,SSW,207,2.0,6.7,94,0.00,,,-99.99,FreeWX 2.05,2013-08-03 04:36:00,
2013-08-03 05:46:00,58.6,56.8,29.85,SSW,203,3.0,6.9,94,0.00,,,-99.99,FreeWX 2.05,2013-08-03 04:46:00,
2013-08-03 05:51:00,58.6,56.8,29.85,SSW,209,3.0,6.7,94,0.00,,,-99.99,FreeWX 2.05,2013-08-03 04:51:00,
2013-08-03 06:01:00,58.6,56.8,29.85,SSW,195,3.0,5.4,94,0.00,,,-99.99,FreeWX 2.05,2013-08-03 05:01:00,
2013-08-03 06:11:00,58.6,56.8,29.85,SSW,193,1.0,5.8,94,0.00,,,-99.99,FreeWX 2.05,2013-08-03 05:11:00,
2013-08-03 06:21:00,58.5,56.7,29.85,SSW,194,1.0,4.9,94,0.00,,,-99.99,FreeWX 2.05,2013-08-03 05:21:00,
2013-08-03 06:26:00,58.5,56.7,29.85,South,185,1.0,4.5,94,0.00,,,-99.99,FreeWX 2.05,2013-08-03 05:26:00,
2013-08-03 06:31:00,58.6,56.8,29.85,South,185,1.0,4.9,94,0.00,,,-99.99,FreeWX 2.05,2013-08-03 05:31:00,
2013-08-03 06:41:00,58.8,57.4,29.88,SW,222,1.0,5.4,95,0.00,,,-99.99,FreeWX 2.05,2013-08-03 05:41:00,
2013-08-03 06:46:00,59.0,57.6,29.88,SW,221,1.0,4.9,95,0.00,,,-99.99,FreeWX 2.05,2013-08-03 05:46:00,
2013-08-03 06:51:00,59.2,57.7,29.88,SSW,194,2.0,5.4,95,0.00,,,-99.99,FreeWX 2.05,2013-08-03 05:51:00,
2013-08-03 06:56:00,59.2,57.7,29.88,SSW,205,2.0,5.8,95,0.00,,,-99.99,FreeWX 2.05,2013-08-03 05:56:00,
2013-08-03 07:01:00,59.4,57.9,29.88,SSW,199,2.0,5.4,95,0.00,,,-99.99,FreeWX 2.05,2013-08-03 06:01:00,
2013-08-03 07:11:00,59.7,58.3,29.88,SSW,203,3.0,4.9,95,0.00,,,-99.99,FreeWX 2.05,2013-08-03 06:11:00,
2013-08-03 07:21:00,60.3,58.8,29.88,SSW,192,3.0,5.8,95,0.00,,,-99.99,FreeWX 2.05,2013-08-03 06:21:00,
2013-08-03 07:26:00,60.6,59.2,29.88,South,188,2.0,5.8,95,0.00,,,-99.99,FreeWX 2.05,2013-08-03 06:26:00,
2013-08-03 07:31:00,61.0,59.5,29.88,SSW,199,3.0,6.7,95,0.00,,,-99.99,FreeWX 2.05,2013-08-03 06:31:00,
2013-08-03 07:36:00,61.3,59.9,29.88,SW,218,4.0,6.3,95,0.04,,,-99.99,FreeWX 2.05,2013-08-03 06:36:00,
2013-08-03 07:46:00,61.7,60.3,29.88,SSW,204,2.0,6.3,95,0.04,,,-99.99,FreeWX 2.05,2013-08-03 06:46:00,
2013-08-03 07:51:00,61.9,60.4,29.88,SW,217,2.0,6.9,95,0.04,,,-99.99,FreeWX 2.05,2013-08-03 06:51:00,
2013-08-03 08:01:00,62.2,60.8,29.88,SSW,207,3.0,6.9,95,0.04,,,-99.99,FreeWX 2.05,2013-08-03 07:01:00,
2013-08-03 08:06:00,63.0,61.5,29.88,SW,219,3.0,5.8,95,0.04,,,-99.99,FreeWX 2.05,2013-08-03 07:06:00,
2013-08-03 08:11:00,63.9,62.4,29.91,SSW,207,3.0,6.3,95,0.04,,,-99.99,FreeWX 2.05,2013-08-03 07:11:00,
2013-08-03 08:21:00,63.9,62.1,29.91,SSW,206,3.0,7.4,94,0.04,,,-99.99,FreeWX 2.05,2013-08-03 07:21:00,
2013-08-03 08:26:00,63.5,61.5,29.91,SSW,210,4.0,8.7,93,0.04,,,-99.99,FreeWX 2.05,2013-08-03 07:26:00,
2013-08-03 08:36:00,63.0,60.3,29.91,SSW,211,4.0,7.4,91,0.00,,,-99.99,FreeWX 2.05,2013-08-03 07:36:00,
2013-08-03 08:41:00,63.3,60.3,29.91,SSW,207,3.0,7.4,90,0.00,,,-99.99,FreeWX 2.05,2013-08-03 07:41:00,
2013-08-03 08:51:00,64.2,60.6,29.91,SW,217,3.0,7.4,88,0.00,,,-99.99,FreeWX 2.05,2013-08-03 07:51:00,
2013-08-03 08:56:00,64.2,60.3,29.91,SW,220,2.0,5.4,87,0.00,,,-99.99,FreeWX 2.05,2013-08-03 07:56:00,
2013-08-03 09:01:00,64.4,59.7,29.91,SSW,206,2.0,6.3,85,0.00,,,-99.99,FreeWX 2.05,2013-08-03 08:01:00,
2013-08-03 09:06:00,64.8,59.2,29.91,SSW,211,3.0,6.9,82,0.00,,,-99.99,FreeWX 2.05,2013-08-03 08:06:00,
2013-08-03 09:11:00,64.9,58.6,29.91,SW,217,2.0,5.8,80,0.00,,,-99.99,FreeWX 2.05,2013-08-03 08:11:00,
2013-08-03 09:16:00,64.9,58.3,29.91,SW,215,2.0,6.7,79,0.00,,,-99.99,FreeWX 2.05,2013-08-03 08:16:00,
2013-08-03 09:21:00,64.8,57.4,29.91,SSW,206,1.0,5.4,77,0.00,,,-99.99,FreeWX 2.05,2013-08-03 08:21:00,
2013-08-03 09:26:00,65.1,57.4,29.94,SSW,211,1.0,6.3,76,0.00,,,-99.99,FreeWX 2.05,2013-08-03 08:26:00,
2013-08-03 09:36:00,65.8,56.1,29.94,SSW,199,3.0,8.3,71,0.00,,,-99.99,FreeWX 2.05,2013-08-03 08:36:00,
2013-08-03 09:41:00,66.0,55.9,29.94,SSW,209,2.0,6.3,70,0.00,,,-99.99,FreeWX 2.05,2013-08-03 08:41:00,
2013-08-03 09:46:00,66.4,56.7,29.94,SSW,212,2.0,7.4,71,0.00,,,-99.99,FreeWX 2.05,2013-08-03 08:46:00,
2013-08-03 09:56:00,67.3,56.3,29.94,SSW,213,3.0,7.4,68,0.00,,,-99.99,FreeWX 2.05,2013-08-03 08:56:00,
2013-08-03 10:01:00,67.1,55.4,29.94,SW,221,3.0,9.2,66,0.00,,,-99.99,FreeWX 2.05,2013-08-03 09:01:00,
2013-08-03 10:11:00,67.1,54.5,29.94,WSW,238,1.0,5.8,64,0.00,,,-99.99,FreeWX 2.05,2013-08-03 09:11:00,
2013-08-03 10:21:00,67.5,54.0,29.94,SSW,212,2.0,9.2,62,0.00,,,-99.99,FreeWX 2.05,2013-08-03 09:21:00,
2013-08-03 10:26:00,67.5,53.6,29.94,SW,227,1.0,4.5,61,0.00,,,-99.99,FreeWX 2.05,2013-08-03 09:26:00,
2013-08-03 10:31:00,67.6,53.8,29.94,SW,232,2.0,8.3,61,0.00,,,-99.99,FreeWX 2.05,2013-08-03 09:31:00,
2013-08-03 10:36:00,68.0,53.1,29.94,SW,223,3.0,10.1,59,0.00,,,-99.99,FreeWX 2.05,2013-08-03 09:36:00,
2013-08-03 10:41:00,68.2,52.9,29.94,SW,219,3.0,7.4,58,0.00,,,-99.99,FreeWX 2.05,2013-08-03 09:41:00,
2013-08-03 10:46:00,68.5,53.2,29.94,SW,221,3.0,9.2,58,0.00,,,-99.99,FreeWX 2.05,2013-08-03 09:46:00,
2013-08-03 10:51:00,68.7,51.8,29.94,SW,226,4.0,11.2,55,0.00,,,-99.99,FreeWX 2.05,2013-08-03 09:51:00,
2013-08-03 10:56:00,69.1,52.2,29.94,SW,217,5.0,9.2,55,0.00,,,-99.99,FreeWX 2.05,2013-08-03 09:56:00,
2013-08-03 11:06:00,70.2,52.7,29.94,SSW,208,4.0,9.2,54,0.00,,,-99.99,FreeWX 2.05,2013-08-03 10:06:00,
2013-08-03 11:11:00,70.7,51.6,29.94,SSW,201,4.0,7.4,51,0.00,,,-99.99,FreeWX 2.05,2013-08-03 10:11:00,
2013-08-03 11:16:00,71.1,52.0,29.94,SSW,206,4.0,8.7,51,0.00,,,-99.99,FreeWX 2.05,2013-08-03 10:16:00,
2013-08-03 11:21:00,71.4,51.3,29.94,SSW,213,4.0,8.7,49,0.00,,,-99.99,FreeWX 2.05,2013-08-03 10:21:00,
2013-08-03 11:26:00,71.8,50.5,29.97,SW,218,5.0,12.1,47,0.00,,,-99.99,FreeWX 2.05,2013-08-03 10:26:00,
2013-08-03 11:31:00,72.1,50.7,29.97,SW,218,5.0,10.1,47,0.00,,,-99.99,FreeWX 2.05,2013-08-03 10:31:00,
2013-08-03 11:36:00,72.3,50.4,29.97,SW,218,5.0,8.3,46,0.00,,,-99.99,FreeWX 2.05,2013-08-03 10:36:00,
2013-08-03 11:46:00,72.3,49.1,29.97,SSW,199,5.0,11.2,44,0.00,,,-99.99,FreeWX 2.05,2013-08-03 10:46:00,
2013-08-03 11:51:00,72.3,49.1,29.97,SSW,199,5.0,9.2,44,0.00,,,-99.99,FreeWX 2.05,2013-08-03 10:51:00,
2013-08-03 12:01:00,72.7,48.2,29.97,SSW,206,5.0,9.6,42,0.00,,,-99.99,FreeWX 2.05,2013-08-03 11:01:00,
2013-08-03 12:06:00,72.5,48.0,29.97,SW,216,5.0,11.6,42,0.00,,,-99.99,FreeWX 2.05,2013-08-03 11:06:00,
2013-08-03 12:11:00,72.7,48.9,29.97,SW,218,5.0,8.7,43,0.00,,,-99.99,FreeWX 2.05,2013-08-03 11:11:00,
2013-08-03 12:21:00,73.2,49.3,29.97,SW,229,4.0,7.4,43,0.00,,,-99.99,FreeWX 2.05,2013-08-03 11:21:00,
2013-08-03 12:26:00,73.2,48.0,29.97,SW,229,3.0,7.8,41,0.00,,,-99.99,FreeWX 2.05,2013-08-03 11:26:00,
2013-08-03 12:36:00,73.6,47.8,29.97,SW,214,5.0,8.7,40,0.00,,,-99.99,FreeWX 2.05,2013-08-03 11:36:00,
2013-08-03 12:41:00,73.8,48.6,29.97,SW,218,4.0,8.7,41,0.00,,,-99.99,FreeWX 2.05,2013-08-03 11:41:00,
2013-08-03 12:46:00,74.1,47.5,29.97,SSW,211,4.0,10.1,39,0.00,,,-99.99,FreeWX 2.05,2013-08-03 11:46:00,
2013-08-03 12:51:00,74.5,48.6,29.97,SSW,196,5.0,9.6,40,0.00,,,-99.99,FreeWX 2.05,2013-08-03 11:51:00,
2013-08-03 13:01:00,75.0,49.6,29.97,SSW,196,4.0,10.5,41,0.00,,,-99.99,FreeWX 2.05,2013-08-03 12:01:00,
2013-08-03 13:11:00,75.4,48.7,29.97,SSW,211,5.0,10.1,39,0.00,,,-99.99,FreeWX 2.05,2013-08-03 12:11:00,
2013-08-03 13:16:00,75.2,49.3,29.97,SSW,201,4.0,7.8,40,0.00,,,-99.99,FreeWX 2.05,2013-08-03 12:16:00,
2013-08-03 13:21:00,76.1,50.0,29.97,South,179,4.0,10.5,40,0.00,,,-99.99,FreeWX 2.05,2013-08-03 12:21:00,
2013-08-03 13:26:00,76.1,50.0,29.97,South,178,5.0,9.6,40,0.00,,,-99.99,FreeWX 2.05,2013-08-03 12:26:00,
2013-08-03 13:31:00,76.1,50.0,29.97,SSW,192,5.0,11.2,40,0.00,,,-99.99,FreeWX 2.05,2013-08-03 12:31:00,
2013-08-03 13:36:00,76.3,50.2,29.97,South,188,4.0,7.8,40,0.00,,,-99.99,FreeWX 2.05,2013-08-03 12:36:00,
2013-08-03 13:41:00,76.5,50.4,29.97,SSW,199,4.0,8.3,40,0.00,,,-99.99,FreeWX 2.05,2013-08-03 12:41:00,
2013-08-03 13:46:00,76.6,49.1,29.97,SSW,199,5.0,11.0,38,0.00,,,-99.99,FreeWX 2.05,2013-08-03 12:46:00,
2013-08-03 13:51:00,76.5,48.9,29.97,South,179,5.0,9.6,38,0.00,,,-99.99,FreeWX 2.05,2013-08-03 12:51:00,
2013-08-03 14:01:00,76.3,48.7,29.97,South,181,5.0,9.6,38,0.00,,,-99.99,FreeWX 2.05,2013-08-03 13:01:00,
2013-08-03 14:11:00,76.6,49.1,29.97,South,186,5.0,10.1,38,0.00,,,-99.99,FreeWX 2.05,2013-08-03 13:11:00,
2013-08-03 14:21:00,76.1,47.1,29.97,South,173,4.0,9.2,36,0.00,,,-99.99,FreeWX 2.05,2013-08-03 13:21:00,
2013-08-03 14:26:00,75.7,47.7,29.97,SSW,193,5.0,9.6,37,0.00,,,-99.99,FreeWX 2.05,2013-08-03 13:26:00,
2013-08-03 14:36:00,76.1,47.1,29.97,South,188,5.0,11.6,36,0.00,,,-99.99,FreeWX 2.05,2013-08-03 13:36:00,
2013-08-03 14:46:00,76.8,47.1,29.97,SSW,194,5.0,11.6,35,0.00,,,-99.99,FreeWX 2.05,2013-08-03 13:46:00,
2013-08-03 14:51:00,76.8,47.1,29.97,SSW,204,5.0,8.7,35,0.00,,,-99.99,FreeWX 2.05,2013-08-03 13:51:00,
2013-08-03 14:56:00,77.0,46.4,30.00,SSW,199,5.0,11.0,34,0.00,,,-99.99,FreeWX 2.05,2013-08-03 13:56:00,
2013-08-03 15:01:00,76.8,46.2,30.00,SSW,202,5.0,10.5,34,0.00,,,-99.99,FreeWX 2.05,2013-08-03 14:01:00,
2013-08-03 15:06:00,76.6,45.3,30.00,South,190,5.0,9.6,33,0.00,,,-99.99,FreeWX 2.05,2013-08-03 14:06:00,
2013-08-03 15:11:00,76.8,46.2,30.00,SSW,199,5.0,11.2,34,0.00,,,-99.99,FreeWX 2.05,2013-08-03 14:11:00,
2013-08-03 15:21:00,76.6,46.2,30.00,SSW,198,5.0,10.1,34,0.00,,,-99.99,FreeWX 2.05,2013-08-03 14:21:00,
2013-08-03 15:31:00,76.3,45.9,30.00,SSW,192,5.0,9.6,34,0.00,,,-99.99,FreeWX 2.05,2013-08-03 14:31:00,
2013-08-03 15:36:00,76.1,45.7,30.00,South,191,5.0,9.6,34,0.00,,,-99.99,FreeWX 2.05,2013-08-03 14:36:00,
2013-08-03 15:46:00,76.3,45.0,30.00,SSW,196,6.0,11.6,33,0.00,,,-99.99,FreeWX 2.05,2013-08-03 14:46:00,
2013-08-03 15:56:00,75.9,45.5,30.00,SSW,210,4.0,9.6,34,0.00,,,-99.99,FreeWX 2.05,2013-08-03 14:56:00,
2013-08-03 16:01:00,75.6,44.4,30.00,SSW,199,4.0,9.2,33,0.00,,,-99.99,FreeWX 2.05,2013-08-03 15:01:00,
2013-08-03 16:06:00,75.2,45.0,30.00,SSW,194,5.0,8.7,34,0.00,,,-99.99,FreeWX 2.05,2013-08-03 15:06:00,
2013-08-03 16:11:00,75.6,45.1,30.00,South,188,4.0,9.2,34,0.00,,,-99.99,FreeWX 2.05,2013-08-03 15:11:00,
2013-08-03 16:21:00,75.6,45.1,30.00,SSW,201,5.0,11.0,34,0.00,,,-99.99,FreeWX 2.05,2013-08-03 15:21:00,
2013-08-03 16:26:00,75.6,46.0,30.00,SSW,200,5.0,9.6,35,0.00,,,-99.99,FreeWX 2.05,2013-08-03 15:26:00,
2013-08-03 16:36:00,75.2,45.7,30.00,South,189,5.0,11.0,35,0.00,,,-99.99,FreeWX 2.05,2013-08-03 15:36:00,
2013-08-03 16:41:00,74.8,46.0,30.00,South,187,5.0,7.4,36,0.00,,,-99.99,FreeWX 2.05,2013-08-03 15:41:00,
2013-08-03 16:46:00,74.3,45.7,30.00,SSW,198,4.0,11.0,36,0.00,,,-99.99,FreeWX 2.05,2013-08-03 15:46:00,
2013-08-03 16:56:00,72.5,46.8,30.00,SW,233,5.0,10.1,40,0.00,,,-99.99,FreeWX 2.05,2013-08-03 15:56:00,
2013-08-03 17:01:00,72.0,47.7,30.00,West,264,4.0,7.4,42,0.00,,,-99.99,FreeWX 2.05,2013-08-03 16:01:00,
2013-08-03 17:11:00,72.0,47.7,30.00,WSW,249,4.0,10.1,42,0.00,,,-99.99,FreeWX 2.05,2013-08-03 16:11:00,
2013-08-03 17:16:00,72.5,48.0,30.00,West,280,4.0,8.7,42,0.00,,,-99.99,FreeWX 2.05,2013-08-03 16:16:00,
2013-08-03 17:26:00,72.9,47.8,30.03,WSW,252,4.0,6.9,41,0.00,,,-99.99,FreeWX 2.05,2013-08-03 16:26:00,
2013-08-03 17:31:00,73.8,47.8,30.03,WSW,244,3.0,8.7,40,0.00,,,-99.99,FreeWX 2.05,2013-08-03 16:31:00,
2013-08-03 17:41:00,73.9,46.8,30.00,SW,229,3.0,9.2,38,0.00,,,-99.99,FreeWX 2.05,2013-08-03 16:41:00,
2013-08-03 17:51:00,74.3,46.4,30.00,SW,227,4.0,7.8,37,0.00,,,-99.99,FreeWX 2.05,2013-08-03 16:51:00,
2013-08-03 18:00:00,74.5,46.4,30.03,WSW,238,3.0,6.9,37,0.00,,,-99.99,FreeWX 2.05,2013-08-03 17:00:00,
2013-08-03 18:06:00,74.5,46.4,30.03,WSW,247,3.0,8.7,37,0.00,,,-99.99,FreeWX 2.05,2013-08-03 17:06:00,
2013-08-03 18:16:00,74.5,46.4,30.03,SW,219,3.0,6.3,37,0.00,,,-99.99,FreeWX 2.05,2013-08-03 17:16:00,
2013-08-03 18:26:00,74.8,47.5,30.03,SSW,197,1.0,5.4,38,0.00,,,-99.99,FreeWX 2.05,2013-08-03 17:26:00,
2013-08-03 18:31:00,75.2,47.8,30.03,SSW,199,2.0,6.7,38,0.00,,,-99.99,FreeWX 2.05,2013-08-03 17:31:00,
2013-08-03 18:41:00,74.3,47.1,30.03,SSW,206,3.0,6.7,38,0.00,,,-99.99,FreeWX 2.05,2013-08-03 17:41:00,
2013-08-03 18:51:00,73.8,47.3,30.03,SW,224,4.0,7.4,39,0.00,,,-99.99,FreeWX 2.05,2013-08-03 17:51:00,
2013-08-03 18:59:00,73.2,47.5,30.03,SW,228,3.0,6.9,40,0.00,,,-99.99,FreeWX 2.05,2013-08-03 17:59:00,
2013-08-03 19:06:00,72.9,47.1,30.03,SSW,201,4.0,8.3,40,0.00,,,-99.99,FreeWX 2.05,2013-08-03 18:06:00,
2013-08-03 19:11:00,72.5,46.8,30.03,South,183,4.0,7.8,40,0.00,,,-99.99,FreeWX 2.05,2013-08-03 18:11:00,
2013-08-03 19:26:00,72.1,47.8,30.03,SSW,203,3.0,5.8,42,0.00,,,-99.99,FreeWX 2.05,2013-08-03 18:26:00,
2013-08-03 19:31:00,72.0,46.9,30.03,SSW,202,3.0,10.5,41,0.00,,,-99.99,FreeWX 2.05,2013-08-03 18:31:00,
2013-08-03 19:41:00,71.2,46.9,30.03,SSW,208,4.0,6.3,42,0.00,,,-99.99,FreeWX 2.05,2013-08-03 18:41:00,
2013-08-03 19:51:00,70.9,46.6,30.03,SSW,192,3.0,6.3,42,0.00,,,-99.99,FreeWX 2.05,2013-08-03 18:51:00,
2013-08-03 19:56:00,70.5,46.9,30.03,SSW,194,3.0,6.7,43,0.00,,,-99.99,FreeWX 2.05,2013-08-03 18:56:00,
2013-08-03 20:01:00,70.3,46.8,30.03,SSW,193,3.0,5.4,43,0.00,,,-99.99,FreeWX 2.05,2013-08-03 19:01:00,
2013-08-03 20:06:00,70.0,47.1,30.03,SSW,194,2.0,7.8,44,0.00,,,-99.99,FreeWX 2.05,2013-08-03 19:06:00,
2013-08-03 20:16:00,69.6,46.8,30.03,South,191,3.0,6.3,44,0.00,,,-99.99,FreeWX 2.05,2013-08-03 19:16:00,
2013-08-03 20:21:00,69.3,46.9,30.03,South,184,2.0,4.9,45,0.00,,,-99.99,FreeWX 2.05,2013-08-03 19:21:00,
2013-08-03 20:26:00,69.1,46.8,30.03,South,187,1.0,7.4,45,0.00,,,-99.99,FreeWX 2.05,2013-08-03 19:26:00,
2013-08-03 20:31:00,68.7,47.1,30.03,South,174,1.0,5.4,46,0.00,,,-99.99,FreeWX 2.05,2013-08-03 19:31:00,
2013-08-03 20:40:00,68.4,47.3,30.03,South,174,2.0,5.8,47,0.00,,,-99.99,FreeWX 2.05,2013-08-03 19:40:00,
2013-08-03 20:46:00,68.0,46.9,30.03,South,177,2.0,6.3,47,0.00,,,-99.99,FreeWX 2.05,2013-08-03 19:46:00,
2013-08-03 20:51:00,67.8,47.5,30.03,South,176,2.0,5.8,48,0.00,,,-99.99,FreeWX 2.05,2013-08-03 19:51:00,
2013-08-03 21:01:00,67.3,47.5,30.06,SSE,158,2.0,5.4,49,0.00,,,-99.99,FreeWX 2.05,2013-08-03 20:01:00,
2013-08-03 21:06:00,67.1,47.8,30.06,SSE,157,2.0,5.8,50,0.00,,,-99.99,FreeWX 2.05,2013-08-03 20:06:00,
2013-08-03 21:11:00,66.9,47.7,30.06,SSE,166,2.0,4.9,50,0.00,,,-99.99,FreeWX 2.05,2013-08-03 20:11:00,
2013-08-03 21:16:00,66.6,47.8,30.06,South,184,2.0,4.9,51,0.00,,,-99.99,FreeWX 2.05,2013-08-03 20:16:00,
2013-08-03 21:20:00,66.4,47.7,30.06,SSW,195,1.0,4.5,51,0.00,,,-99.99,FreeWX 2.05,2013-08-03 20:20:00,
2013-08-03 21:26:00,66.0,48.4,30.06,SSW,213,1.0,4.0,53,0.00,,,-99.99,FreeWX 2.05,2013-08-03 20:26:00,
2013-08-03 21:31:00,65.8,48.2,30.06,SW,216,1.0,4.0,53,0.00,,,-99.99,FreeWX 2.05,2013-08-03 20:31:00,
2013-08-03 21:41:00,65.3,49.3,30.06,North,-999,0.0,4.5,56,0.00,,,-99.99,FreeWX 2.05,2013-08-03 20:41:00,
2013-08-03 21:50:00,64.8,49.6,30.06,SSW,196,1.0,4.9,58,0.00,,,-99.99,FreeWX 2.05,2013-08-03 20:50:00,
2013-08-03 21:56:00,64.6,49.5,30.06,SSW,203,1.0,5.4,58,0.00,,,-99.99,FreeWX 2.05,2013-08-03 20:56:00,
2013-08-03 22:06:00,64.2,49.6,30.06,SSW,204,1.0,4.9,59,0.00,,,-99.99,FreeWX 2.05,2013-08-03 21:06:00,
2013-08-03 22:11:00,64.0,49.5,30.06,SSW,206,2.0,6.7,59,0.00,,,-99.99,FreeWX 2.05,2013-08-03 21:11:00,
2013-08-03 22:16:00,63.9,49.6,30.06,SSW,208,2.0,5.4,60,0.00,,,-99.99,FreeWX 2.05,2013-08-03 21:16:00,
2013-08-03 22:20:00,63.7,50.0,30.06,South,191,2.0,5.4,61,0.00,,,-99.99,FreeWX 2.05,2013-08-03 21:20:00,
2013-08-03 22:25:00,63.5,49.8,30.06,SSW,193,2.0,5.4,61,0.00,,,-99.99,FreeWX 2.05,2013-08-03 21:25:00,
2013-08-03 22:31:00,63.5,50.2,30.06,SSW,203,2.0,4.9,62,0.00,,,-99.99,FreeWX 2.05,2013-08-03 21:31:00,
2013-08-03 22:36:00,63.3,50.0,30.06,SSW,200,1.0,4.5,62,0.00,,,-99.99,FreeWX 2.05,2013-08-03 21:36:00,
2013-08-03 22:45:00,63.0,51.1,30.06,SSW,203,2.0,6.3,65,0.00,,,-99.99,FreeWX 2.05,2013-08-03 21:45:00,
2013-08-03 22:51:00,62.6,50.7,30.06,SSW,198,2.0,4.9,65,0.00,,,-99.99,FreeWX 2.05,2013-08-03 21:51:00,
2013-08-03 22:56:00,62.4,50.9,30.06,SSW,193,1.0,4.5,66,0.00,,,-99.99,FreeWX 2.05,2013-08-03 21:56:00,
2013-08-03 23:01:00,62.2,50.7,30.06,SW,217,1.0,3.6,66,0.00,,,-99.99,FreeWX 2.05,2013-08-03 22:01:00,
2013-08-03 23:06:00,62.1,50.5,30.06,North,-999,0.0,4.0,66,0.00,,,-99.99,FreeWX 2.05,2013-08-03 22:06:00,
2013-08-03 23:16:00,61.7,50.5,30.06,SE,146,1.0,4.5,67,0.00,,,-99.99,FreeWX 2.05,2013-08-03 22:16:00,
2013-08-03 23:26:00,61.7,51.1,30.09,SSE,168,1.0,4.5,68,0.00,,,-99.99,FreeWX 2.05,2013-08-03 22:26:00,
2013-08-03 23:30:00,61.5,51.3,30.09,South,190,2.0,5.8,69,0.00,,,-99.99,FreeWX 2.05,2013-08-03 22:30:00,
2013-08-03 23:36:00,61.3,51.1,30.09,South,178,2.0,5.8,69,0.00,,,-99.99,FreeWX 2.05,2013-08-03 22:36:00,
2013-08-03 23:41:00,61.3,51.1,30.09,South,172,2.0,6.3,69,0.00,,,-99.99,FreeWX 2.05,2013-08-03 22:41:00,
2013-08-03 23:46:00,61.2,51.3,30.09,South,175,2.0,5.4,70,0.00,,,-99.99,FreeWX 2.05,2013-08-03 22:46:00,
2013-08-03 23:51:00,61.0,51.1,30.09,SSE,160,1.0,4.0,70,0.00,,,-99.99,FreeWX 2.05,2013-08-03 22:51:00,